Weather Roundup
Issued by NWS

Home | Current Version | Previous Version | Graphics & Text | Print | Product List | Glossary Off
Versions: 1 2 3 4 5 6 7 8 9 10 11 12 13 14 15 16 17 18 19 20 21 22 23 24 25 26 27 28 29 30 31 32 33 34 35 36 37 38 39 40 41 42 43 44 45 46 47 48 49 50

000
NZUS93 KARX 312259
HRRWXR

CURRENT HOURLY OBSERVATIONS ACROSS
MUCH OF THE UPPER MISSISSIPPI VALLEY
NATIONAL WEATHER SERVICE LA CROSSE WI
600 PM CDT FRI JUL 31 2015


...SOUTHEAST MINNESOTA...


CITY           SKY/WX    TMP DP  RH WIND       PRES   REMARKS
ROCHESTER      SUNNY     77  56  48 NW15      30.03F
ROCHESTER/MAYO FAIR      78  52  39 W17G26    30.01F
WINONA         SUNNY     79  50  36 NW13      29.98F
AUSTIN         SUNNY     81  54  39 NW13      30.04F
ALBERT LEA     SUNNY     79  55  44 W7        30.05S
DODGE CENTER   SUNNY     77  54  44 NW13      30.03F
PRESTON        SUNNY     76  54  45 NW14      30.03F
OWATONNA       SUNNY     79  55  44 NW12      30.04S
FARIBAULT      SUNNY     79  57  47 NW9       30.03F
$$

...ELSEWHERE IN MINNESOTA...


CITY           SKY/WX    TMP DP  RH WIND       PRES   REMARKS
MINNEAPOLIS    MOSUNNY   81  52  36 NW14      29.99F
INTNL FALLS    MOSUNNY   73  53  49 NW13G23   29.90S
DULUTH         MOSUNNY   78  49  35 NW17G26   29.93S
RED WING       SUNNY     82  46  28 NW9G17    29.97F
REDWOOD FALLS  SUNNY     83  54  36 NW6       30.04F
MANKATO        SUNNY     81  55  41 NW12      30.03F
WORTHINGTON    SUNNY     81  54  39 CALM      30.08F
FAIRMONT       SUNNY     81  52  36 N7        30.06S
$$

...SOUTHWEST WISCONSIN...


CITY           SKY/WX    TMP DP  RH WIND       PRES   REMARKS
LA CROSSE      SUNNY     82  51  34 NW15      29.97F
PRAIRIE DU CHI SUNNY     82  45  26 W15       29.99F
BOSCOBEL       SUNNY     83  52  34 NW12      29.98F
LONE ROCK      NOT AVBL
PLATTEVILLE    SUNNY     80  50  34 NW14G20   30.00S
FORT MC COY    SUNNY     81  44  27 NW13G21   29.98F
VIROQUA        FAIR      77  51  38 NW9G20    30.01F
WIS DELLS      MOSUNNY   81  44  26 NW15      29.97S
$$

...ELSEWHERE IN WISCONSIN...


CITY           SKY/WX    TMP DP  RH WIND       PRES   REMARKS
MILWAUKEE      MOSUNNY   83  46  27 W20G25    29.92F
MADISON        MOSUNNY   80  51  36 NW10G20   29.95F
GREEN BAY      MOSUNNY   80  53  39 NW14      29.88S
EAU CLAIRE     MOSUNNY   79  50  36 NW12G22   29.96F
BLACK RVR FLS  FAIR      80  45  29 NW10G23   29.97F
MEDFORD        PTSUNNY   71  53  51 W8        29.96S
WAUSAU         MOSUNNY   79  50  36 NW17G23   29.92S
WIS RAPIDS     MOSUNNY   78  49  35 NW16      29.96F
MARSHFIELD     MOSUNNY   77  48  35 NW17G29   29.96S
RICE LAKE      PTSUNNY   76  48  37 W10G21    29.99S
$$

...NORTHEAST IOWA...


CITY           SKY/WX    TMP DP  RH WIND       PRES   REMARKS
DECORAH        SUNNY     79  54  41 NW13G22   30.01F
MASON CITY     SUNNY     81  58  45 NW9       30.07S
CHARLES CITY   SUNNY     79  57  47 NW13G21   30.05F
OELWEIN        SUNNY     79  57  47 NW8G14    30.05S
$$

...ELSEWHERE IN IOWA...


CITY           SKY/WX    TMP DP  RH WIND       PRES   REMARKS
DES MOINES     MOSUNNY   87  59  38 E8        30.03F
IOWA CITY      SUNNY     84  61  45 NW12      30.03F
FORT DODGE     SUNNY     81  61  50 CALM      30.07F
$$

...NORTHERN ILLINOIS...


CITY           SKY/WX    TMP DP  RH WIND       PRES   REMARKS
CHICAGO-OHARE  MOSUNNY   84  49  29 NW18G25   29.93S
CHICAGO-MIDWAY MOSUNNY   86  46  24 NW16G26   29.93S
MOLINE         SUNNY     85  53  33 NW16G24   30.00F
ROCKFORD       SUNNY     83  47  28 NW16G26   29.97F
PEORIA         SUNNY     88  60  38 NW6       30.00F
$$

NOTE: "FAIR" INDICATES FEW OR NO CLOUDS BELOW 12,000 FEET WITH NO
SIGNIFICANT WEATHER AND/OR OBSTRUCTIONS TO VISIBILITY. WIND
SPEEDS ARE IN MILES-PER-HOUR.



USA.gov is the U.S. government's official web portal to all federal, state and local government web resources and services.